Location: Grind
(45.8667°N, 22.4833°E)
Time: 20:23:18
(UTC+00:00)

Daily predictions for brighter satellites

Satellite Brightness Start Highest point End
(mag) Time Altitude Azimuth Time Altitude Azimuth Time Altitude Azimuth
Cosmos 2173 Rocket 4.4 17:14:09 10° SSW 17:20:29 76° W 17:26:53 10° N
Cosmos 1459 Rocket 4.2 17:15:00 10° SSW 17:21:03 78° W 17:27:08 10° N
Cosmos 1151 Rocket 3.3 17:16:58 10° N 17:21:07 45° ENE 17:25:11 10° SSE
Okean O Rocket 3.3 17:18:27 10° E 17:21:11 16° ENE 17:23:54 10° NNE
Cosmos 2322 Rocket 2.5 17:17:45 10° SSW 17:23:28 77° WNW 17:29:13 10° NNE
Resurs 01 Rocket 2.6 17:21:34 10° SE 17:25:21 28° ENE 17:29:09 10° N
ACS3 Solar Sail 3.1 17:21:25 10° ESE 17:26:20 24° ENE 17:31:15 10° N
Cosmos 1340 3.0 17:23:31 10° SSE 17:26:27 31° E 17:29:25 10° NNE
Meteor PRIRODA 3.5 17:25:26 10° SSE 17:28:40 54° ENE 17:31:55 10° N
USA 186 3.0 17:26:34 10° SE 17:29:11 24° ENE 17:31:51 10° NNE
ATLAS 3B R/B 3.3 17:22:42 10° NW 17:30:34 75° WSW 17:38:14 10° SSE
Cosmos 2333 Rocket 2.3 17:25:28 10° SSW 17:31:15 88° WNW 17:37:04 10° NNE
Helios 1A 3.0 17:30:10 10° NNE 17:34:09 51° E 17:38:06 10° S
Cosmos 44 Rocket 3.8 17:29:59 10° NNW 17:34:32 42° NE 17:38:57 10° ESE
Cosmos 2219 Rocket 2.3 17:30:03 10° S 17:35:36 59° ESE 17:41:11 10° NNE
BlueWalker 3 3.1 17:34:21 10° NW 17:37:45 32° NNE 17:41:10 10° E
Meteor 1-5 Rocket 4.2 17:33:18 10° S 17:38:50 71° E 17:44:36 10° NNE
SL-08 R/B 3.4 17:33:58 10° NNE 17:38:54 77° ESE 17:43:49 10° S
USA 229 DEB 4.1 17:32:12 10° NW 17:39:40 75° NE 17:47:47 10° SE
USA 229 4.1 17:32:22 10° NW 17:39:49 75° NE 17:47:54 10° SE
CSL-04 Rocket 4.2 17:36:33 10° SE 17:41:30 39° ENE 17:46:25 10° N
SAR-Lupe-2 4.0 17:39:14 10° S 17:42:46 64° WSW 17:46:20 10° NNW
SKYMED 3 4.4 17:38:44 10° NNE 17:42:52 75° ESE 17:46:59 10° S
SL-16 R/B 3.9 17:38:27 10° WSW 17:43:40 37° NW 17:48:56 10° NNE
Timation 2 Rocket 4.1 17:40:16 10° NNW 17:46:34 89° ENE 17:53:08 10° SSE
Cosmos 1725 Rocket 4.3 17:42:10 10° SSW 17:48:21 75° W 17:54:33 10° N
USA 267 4.4 17:43:11 10° ENE 17:48:58 35° N 17:54:47 10° NW
CZ-4B R/B 3.5 17:44:22 10° S 17:49:06 75° WSW 17:53:53 10° NNW
Cosmos 1626 2.6 17:47:29 10° NNW 17:50:24 48° W 17:53:17 10° S
Cosmos 1842 4.3 17:48:49 10° NNE 17:51:47 23° ENE 17:53:34 16° ESE
Cosmos 1844 Rocket 4.4 17:48:13 10° NW 17:53:17 34° WSW 17:58:19 10° SSW
Cosmos 1766 Rocket 4.0 17:50:12 10° SSE 17:54:12 38° E 17:58:15 10° NNE
SJ-6B 2.9 17:50:34 10° S 17:54:12 69° WSW 17:57:50 10° NNW
Cosmos 2322 3.9 17:50:52 10° S 17:56:13 47° ESE 18:01:37 10° NE
Cosmos 1066 Rocket 4.3 17:54:13 10° N 18:00:04 65° ENE 18:05:51 10° SSE
GEOS 3 Rocket 4.3 17:56:34 10° SSE 18:01:41 53° WSW 18:06:46 10° NW
Cosmos 1400 Rocket 2.6 18:04:15 10° N 18:08:06 65° ENE 18:11:19 14° SSE
USA 276 3.2 18:07:02 10° WNW 18:09:38 32° N 18:11:16 17° NE
CZ-4 R/B 1.7 18:08:26 10° S 18:12:10 62° W 18:15:59 10° NNW
Cosmos 1707 3.3 18:10:23 10° N 18:13:38 33° ENE 18:14:39 27° ESE
Cosmos 2061 Rocket 4.5 18:07:34 10° SSW 18:13:57 68° W 18:20:24 10° N
COSMOS 2428 2.8 18:09:40 10° S 18:15:12 54° ESE 18:20:46 10° NE
CSL-04 Debris 4.1 18:10:57 10° SSE 18:16:24 79° ENE 18:21:54 10° NNW
Cosmos 1937 Rocket 4.3 18:11:28 10° NNW 18:16:36 53° WSW 18:21:43 10° S
Cosmos 1818 3.5 18:11:15 10° SSW 18:16:42 79° ESE 18:22:12 10° NE
Cosmos 1726 2.0 18:14:19 10° SSW 18:17:06 57° W 18:19:54 10° N
Cosmos 2233 Rocket 4.4 18:11:26 10° SSW 18:17:32 67° W 18:23:40 10° N
Cosmos 1536 3.4 18:20:01 29° ESE 18:20:42 31° E 18:24:07 10° NNE
Lacrosse 4 Rocket 1.4 18:17:43 10° NNW 18:22:05 82° ENE 18:24:34 25° SE
Cosmos 1513 Rocket 4.4 18:16:42 10° S 18:22:36 58° E 18:28:33 10° NNE
Cosmos 1943 Rocket 3.2 18:17:53 10° N 18:22:39 29° NE 18:24:57 22° E
Meteor 1-14 Rocket 4.2 18:17:19 10° S 18:22:45 61° E 18:28:12 10° NNE
USA 59 Rocket 0.4 18:19:34 10° NNW 18:23:17 49° NE 18:25:31 27° ESE
KORONAS-FOTON 3.7 18:20:06 10° N 18:23:46 59° E 18:25:27 29° SSE
Cosmos 1464 Rocket 4.2 18:20:08 10° SSE 18:26:07 48° E 18:32:10 10° NNE
Cosmos 1356 Rocket 3.7 18:22:30 10° N 18:26:34 46° ENE 18:28:04 32° SE
Meteor 1-11 Rocket 4.2 18:27:18 21° SE 18:30:21 37° E 18:35:26 10° NNE
Cosmos 1328 Rocket 3.5 18:26:13 10° N 18:30:32 83° W 18:34:04 15° S
Terra 3.1 18:30:29 22° ENE 18:31:11 22° ENE 18:34:48 10° NNE
Meteor 1-4 Rocket 1.6 18:28:41 10° N 18:31:19 68° ENE 18:31:19 68° ENE
Cosmos 1743 4.1 18:29:27 10° SW 18:32:47 37° WNW 18:36:09 10° N
Cosmos 1674 2.7 18:29:45 10° NNW 18:33:05 64° W 18:35:10 21° S
Ariane Rocket 4.5 18:34:37 19° ENE 18:35:22 19° ENE 18:38:55 10° NNE
Cosmos 1125 Rocket 4.2 18:32:17 10° N 18:37:03 35° ENE 18:38:31 30° E
Cosmos 2278 Rocket 2.4 18:33:13 10° NNW 18:38:47 53° ENE 18:41:07 32° ESE
Kosmos-1783 4.0 18:36:35 10° SW 18:38:14 30° SW 18:38:14 30° SW
CZ-4B R/B 3.5 18:33:58 10° S 18:39:26 65° WSW 18:44:51 10° NNW
NOSS 2-1 (C) 3.5 18:35:58 10° NW 18:39:45 69° NE 18:41:26 38° ESE
ERS-1 Rocket 3.8 18:39:39 30° E 18:40:44 33° ENE 18:45:12 10° N
Iridium 4 Rocket 4.5 18:38:03 10° NNW 18:41:57 36° W 18:45:45 10° SSW
Cosmos 2034 Rocket 4.3 18:41:53 27° SE 18:44:51 45° E 18:50:41 10° NNE
SPOT 5 2.9 18:45:11 39° SE 18:46:39 56° ENE 18:51:08 10° N
USA 290 2.6 18:44:06 10° NNW 18:47:00 50° NE 18:47:00 50° NE
TSX-5 3.6 18:45:12 10° NW 18:48:17 57° WSW 18:48:42 51° SSW
Cosmos 1072 Rocket 4.5 18:43:01 10° S 18:49:24 77° E 18:55:49 10° N
NOSS 0 Rocket 3.9 18:47:28 10° SSW 18:53:38 66° ESE 18:59:50 10° NNE
Okean 3 Rocket 3.5 18:51:02 19° S 18:54:12 87° ESE 18:58:42 10° N
USA 306 3.2 18:52:04 10° SW 18:54:09 38° SW 18:54:09 38° SW
USA 215 3.5 18:50:06 10° ENE 18:56:18 43° SE 19:02:27 10° SSW
Okean O Rocket 2.0 18:54:28 25° S 18:56:57 62° WSW 19:01:22 10° NNW
USA 186 4.4 18:58:33 10° SW 19:00:53 19° W 19:03:16 10° NW
Resurs 01 Rocket 3.3 18:57:45 10° SSW 19:01:41 31° W 19:05:40 10° NNW
Aureole 3 Rocket 4.2 19:01:28 22° SSE 19:06:26 60° E 19:12:04 10° NNE
Cosmos 2237 Rocket 2.2 19:04:46 35° S 19:06:55 57° ESE 19:12:26 10° NNE
MOS 1 Rocket 3.4 19:06:49 56° SE 19:07:42 68° ENE 19:12:50 10° N
ACS3 Solar Sail 2.1 19:05:09 19° S 19:09:49 69° W 19:16:14 10° NNW
Okean-O 2.7 19:12:12 53° SSW 19:13:06 72° WSW 19:17:31 10° NNW
NOSS 2-1 (E) 3.9 19:11:52 10° NW 19:15:49 63° SW 19:16:32 55° S
BlueWalker 3 2.2 19:12:20 10° WNW 19:15:32 61° WNW 19:15:32 61° WNW
Cosmos 1515 Rocket 3.9 19:12:16 10° NNW 19:16:32 59° W 19:17:32 46° SW
Sich 1 3.7 19:20:26 42° NNE 19:20:26 42° NNE 19:23:25 10° NNE
MetOp-B 4.1 19:17:45 48° S 19:19:20 81° WSW 19:24:44 10° NNW
Cosmos 2219 Rocket 4.3 19:15:09 10° WSW 19:19:55 27° NW 19:24:42 10° N
SL-24 R/B 4.3 19:25:00 70° S 19:25:36 88° E 19:30:30 10° N
NOSS 2-1 (D) 4.2 19:21:58 10° NW 19:25:50 49° SW 19:26:16 47° SW
BREEZE-M DEB (TANK) 4.4 19:24:21 10° WNW 19:25:17 23° WNW 19:25:17 23° WNW
USA 267 3.6 19:29:00 39° E 19:31:13 56° NNE 19:37:35 10° NW
Cosmos 1500 Rocket 3.9 19:34:22 62° N 19:34:22 62° N 19:38:03 10° N
IRS-1C Rocket 4.0 19:33:38 72° S 19:34:10 85° WSW 19:39:29 10° NNW
Cosmos 1980 3.7 19:29:57 10° SSW 19:35:35 83° WNW 19:41:19 10° NNE
Cosmos 2369 Rocket 3.6 19:35:03 10° N 19:39:45 25° NE 19:39:53 25° NE
Spot 2 Rocket 3.5 19:41:51 73° NNE 19:41:51 73° NNE 19:46:31 10° NNW
Cosmos 2298 Rocket 4.2 19:36:54 10° NNW 19:41:45 62° NE 19:41:45 62° NE
USA 32 4.1 19:38:03 10° N 19:43:17 72° W 19:43:42 68° SW
Cosmos 2150 Rocket 4.2 19:42:10 10° NNW 19:46:42 62° NNE 19:46:42 62° NNE
Cosmos 1315 Rocket 4.1 19:45:24 10° NNW 19:48:17 38° NW 19:48:17 38° NW
Cosmos 1570 Rocket 4.3 19:49:52 53° WSW 19:50:56 66° WNW 19:56:12 10° NNE
Lacrosse 4 Rocket 4.2 19:58:14 10° W 19:59:37 11° WSW 20:00:26 11° WSW
SL-16 R/B 4.0 20:07:18 20° NE 20:07:18 20° NE 20:09:04 10° NE
Cosmos 1092 Rocket 4.1 19:58:55 10° NNW 20:05:12 69° W 20:05:51 64° SW
Cosmos 1943 Rocket 2.7 20:01:19 10° NW 20:06:27 50° WSW 20:06:27 50° WSW
Terra 2.8 20:09:10 43° WNW 20:09:10 43° WNW 20:13:02 10° NNW
Cosmos 2026 Rocket 4.3 20:05:47 10° NNW 20:11:55 59° W 20:12:32 57° WSW
USA 59 Rocket 2.2 20:09:20 10° WNW 20:11:54 22° WSW 20:11:54 22° WSW
Ariane Rocket 3.6 20:14:46 52° NW 20:14:46 52° NW 20:18:51 10° NNW
SPOT 3 Rocket 4.2 20:17:15 53° NW 20:17:15 53° NW 20:21:26 10° NNW
Cosmos 1634 Rocket 4.1 20:17:05 71° W 20:17:18 72° W 20:23:38 10° N
ERS-1 Rocket 4.3 20:19:35 34° W 20:19:35 34° W 20:23:59 10° NNW
Cosmos 2278 Rocket 3.8 20:17:54 10° NW 20:22:29 26° WSW 20:22:58 25° WSW
USA 215 3.4 20:33:01 10° NE 20:39:31 68° NNW 20:46:00 10° WSW
Cosmos 2237 Rocket 4.0 20:46:36 10° WSW 20:51:19 27° NW 20:56:05 10° N
ACS3 Solar Sail 4.4 20:53:16 10° W 20:55:02 11° W 20:56:48 10° WNW
USA 267 4.1 21:16:20 41° W 21:16:20 41° W 21:20:40 10° WNW
Cosmos 2369 Rocket 3.7 21:18:34 10° NNW 21:21:39 32° NW 21:21:39 32° NW
SL-16 R/B 3.9 21:49:08 28° NNW 21:49:08 28° NNW 21:52:57 10° N
Cosmos 2344 4.4 22:00:29 10° NW 22:08:25 55° NE 22:10:20 49° E
USA 215 4.5 22:16:03 10° NE 22:21:55 37° NNW 22:27:48 10° WNW
ATLAS 2AS CENTAUR R/B 4.1 22:36:06 10° NNW 22:42:11 32° NNE 22:43:40 29° NE
Cosmos 1980 Rocket 3.8 23:27:30 10° N 23:31:54 30° NE 23:31:54 30° NE
CZ-2C R/B 4.2 23:40:58 31° NNE 23:40:58 31° NNE 23:43:58 10° N
IDEFIX/ARIANE 42P 4.3 23:40:04 10° NNE 23:42:56 28° NE 23:42:56 28° NE
USA 281 4.0 23:47:53 41° E 23:49:06 46° NE 23:55:19 10° NNW
